When you browse on this site, cookies collect data to enhance your experience and personalize the content and advertising you see.
Visit our Privacy Policy to learn more. By continuing to use the site, you agree to this use of cookies and data.
  • In Czech Republic
  • List of Countries
  • For 7 days
  • Water Temperature
  • Satellite Maps
  • Weather Map
  • Weather Widgets
  • user-avatar
    Login

    Hourly Weather London

    Today, 17 January, Thursday

    Time Temperature Precipitation Wind Pressure Humidity
    00:00 +4°C° 0 mm 2 mps 750 mmHg 81%
    01:00 +4°C° 0.3 mm 3 mps 750 mmHg 83%
    02:00 +4°C° 0.3 mm 3 mps 750 mmHg 84%
    03:00 +4°C° 0.3 mm 3 mps 750 mmHg 86%
    04:00 +3°C° 0.2 mm 4 mps 750 mmHg 84%
    05:00 +3°C° 0.2 mm 4 mps 751 mmHg 82%
    06:00 +2°C° 0.2 mm 5 mps 751 mmHg 81%
    07:00 +2°C° 0 mm 5 mps 752 mmHg 79%
    08:00 +2°C° 0 mm 5 mps 753 mmHg 78%
    09:00 +2°C° 0 mm 6 mps 754 mmHg 76%
    10:00 +2°C° 0 mm 6 mps 755 mmHg 69%
    11:00 +2°C° 0 mm 6 mps 756 mmHg 62%
    12:00 +2°C° 0 mm 6 mps 757 mmHg 54%
    13:00 +2°C° 0 mm 6 mps 758 mmHg 55%
    14:00 +2°C° 0 mm 6 mps 758 mmHg 55%
    15:00 +2°C° 0 mm 5 mps 759 mmHg 55%
    16:00 +2°C° 0 mm 5 mps 760 mmHg 58%
    17:00 +1°C° 0 mm 4 mps 760 mmHg 60%
    18:00 +1°C° 0 mm 4 mps 761 mmHg 62%
    19:00 +1°C° 0 mm 3 mps 761 mmHg 63%
    20:00 +1°C° 0 mm 3 mps 762 mmHg 64%
    21:00 +2°C° 0 mm 2 mps 762 mmHg 66%
    22:00 +2°C° 0 mm 2 mps 762 mmHg 66%
    23:00 +2°C° 0 mm 2 mps 763 mmHg 67%

    Tomorrow, 18 January, Friday

    Time Temperature Precipitation Wind Pressure Humidity
    00:00 +2°C° 0 mm 2 mps 763 mmHg 67%
    01:00 +2°C° 0 mm 1 mps 763 mmHg 68%
    02:00 +2°C° 0 mm 1 mps 763 mmHg 68%
    03:00 +2°C° 0 mm 1 mps 763 mmHg 68%
    04:00 +2°C° 0 mm 1 mps 763 mmHg 68%
    05:00 +2°C° 0 mm 1 mps 762 mmHg 68%
    06:00 +2°C° 0 mm 1 mps 762 mmHg 68%
    07:00 +2°C° 0 mm 1 mps 762 mmHg 67%
    08:00 +2°C° 0 mm 1 mps 762 mmHg 66%
    09:00 +2°C° 0 mm 2 mps 762 mmHg 65%
    10:00 +3°C° 0 mm 2 mps 762 mmHg 64%
    11:00 +3°C° 0 mm 3 mps 762 mmHg 62%
    12:00 +4°C° 0 mm 3 mps 762 mmHg 61%
    13:00 +4°C° 0 mm 4 mps 761 mmHg 62%
    14:00 +4°C° 0 mm 4 mps 761 mmHg 64%
    15:00 +4°C° 0 mm 4 mps 760 mmHg 65%
    16:00 +4°C° 0 mm 4 mps 760 mmHg 66%
    17:00 +3°C° 0 mm 4 mps 760 mmHg 67%
    18:00 +1°C° 0 mm 4 mps 759 mmHg 68%
    19:00 +3°C° 0 mm 4 mps 759 mmHg 67%
    20:00 +3°C° 0 mm 4 mps 759 mmHg 67%
    21:00 +2°C° 0 mm 5 mps 759 mmHg 66%
    22:00 +2°C° 0.1 mm 5 mps 758 mmHg 67%
    23:00 +2°C° 0.1 mm 5 mps 758 mmHg 68%

    Day after tomorrow, 19 January, Saturday

    Time Temperature Precipitation Wind Pressure Humidity
    00:00 +2°C° 0.1 mm 5 mps 757 mmHg 69%
    01:00 +2°C° 0 mm 5 mps 757 mmHg 73%
    02:00 +2°C° 0 mm 5 mps 757 mmHg 77%
    03:00 +2°C° 0 mm 5 mps 756 mmHg 81%
    04:00 +2°C° 0.1 mm 5 mps 756 mmHg 83%
    05:00 +2°C° 0.1 mm 5 mps 755 mmHg 84%
    06:00 +2°C° 0.1 mm 5 mps 755 mmHg 86%
    07:00 +2°C° 0.1 mm 5 mps 755 mmHg 86%
    08:00 +2°C° 0.1 mm 5 mps 755 mmHg 86%
    09:00 +2°C° 0.1 mm 5 mps 755 mmHg 86%
    10:00 +4°C° 0.1 mm 4 mps 755 mmHg 86%
    11:00 +4°C° 0.1 mm 4 mps 755 mmHg 86%
    12:00 +5°C° 0.1 mm 4 mps 755 mmHg 85%
    13:00 +5°C° 0 mm 4 mps 754 mmHg 86%
    14:00 +5°C° 0 mm 4 mps 754 mmHg 86%
    15:00 +5°C° 0 mm 4 mps 754 mmHg 87%
    16:00 +5°C° 0 mm 3 mps 754 mmHg 88%
    17:00 +5°C° 0 mm 3 mps 754 mmHg 90%
    18:00 +4°C° 0 mm 3 mps 754 mmHg 92%
    19:00 +5°C° 0 mm 2 mps 755 mmHg 93%
    20:00 +5°C° 0 mm 2 mps 755 mmHg 94%
    21:00 +5°C° 0 mm 2 mps 755 mmHg 95%
    22:00 +5°C° 0 mm 2 mps 755 mmHg 95%
    23:00 +6°C° 0 mm 1 mps 755 mmHg 95%

    20 January, Sunday

    Time Temperature Precipitation Wind Pressure Humidity
    00:00 +6°C° 0 mm 1 mps 755 mmHg 96%
    01:00 +5°C° 0 mm 1 mps 755 mmHg 96%
    02:00 +5°C° 0 mm 1 mps 756 mmHg 96%
    03:00 +5°C° 0 mm 1 mps 756 mmHg 96%
    04:00 +5°C° 0 mm 1 mps 756 mmHg 96%
    05:00 +4°C° 0 mm 1 mps 756 mmHg 96%
    06:00 +4°C° 0 mm 1 mps 756 mmHg 96%
    07:00 +3°C° 0 mm 2 mps 757 mmHg 96%
    08:00 +3°C° 0 mm 2 mps 757 mmHg 96%
    09:00 +3°C° 0 mm 2 mps 758 mmHg 96%
    10:00 +4°C° 0.1 mm 2 mps 759 mmHg 94%
    11:00 +4°C° 0.1 mm 3 mps 759 mmHg 91%
    12:00 +5°C° 0.1 mm 3 mps 760 mmHg 89%
    13:00 +5°C° 0.1 mm 3 mps 760 mmHg 89%
    14:00 +5°C° 0.1 mm 4 mps 761 mmHg 88%
    15:00 +5°C° 0.1 mm 4 mps 761 mmHg 88%
    16:00 +5°C° 0.1 mm 5 mps 762 mmHg 86%
    17:00 +5°C° 0.1 mm 5 mps 763 mmHg 84%
    18:00 +3°C° 0.1 mm 5 mps 763 mmHg 83%
    19:00 +3°C° 0 mm 5 mps 764 mmHg 78%
    20:00 +2°C° 0 mm 5 mps 765 mmHg 73%
    21:00 +2°C° 0 mm 5 mps 766 mmHg 69%
    22:00 +1°C° 0 mm 4 mps 766 mmHg 70%
    23:00 +1°C° 0 mm 4 mps 766 mmHg 71%

    21 January, Monday

    Time Temperature Precipitation Wind Pressure Humidity
    00:00 +1°C° 0 mm 4 mps 767 mmHg 72%
    01:00 0°C° 0 mm 4 mps 767 mmHg 73%
    02:00 0°C° 0 mm 4 mps 767 mmHg 74%
    03:00 0°C° 0 mm 4 mps 767 mmHg 75%
    04:00 0°C° 0 mm 4 mps 767 mmHg 75%
    05:00 0°C° 0 mm 3 mps 767 mmHg 76%
    06:00 0°C° 0 mm 3 mps 767 mmHg 77%
    07:00 0°C° 0 mm 3 mps 767 mmHg 77%
    08:00 0°C° 0 mm 3 mps 767 mmHg 77%
    09:00 +1°C° 0 mm 2 mps 767 mmHg 78%
    10:00 +2°C° 0 mm 2 mps 766 mmHg 74%
    11:00 +3°C° 0 mm 2 mps 766 mmHg 70%
    12:00 +4°C° 0 mm 2 mps 765 mmHg 66%
    13:00 +4°C° 0 mm 2 mps 764 mmHg 66%
    14:00 +5°C° 0 mm 2 mps 763 mmHg 67%
    15:00 +5°C° 0 mm 2 mps 763 mmHg 68%
    16:00 +4°C° 0 mm 2 mps 762 mmHg 70%
    17:00 +3°C° 0 mm 3 mps 761 mmHg 73%
    18:00 +2°C° 0 mm 3 mps 760 mmHg 76%
    19:00 +3°C° 0.1 mm 3 mps 758 mmHg 76%
    20:00 +3°C° 0.1 mm 4 mps 757 mmHg 77%
    21:00 +2°C° 0.1 mm 5 mps 755 mmHg 78%
    22:00 +3°C° 0.6 mm 5 mps 754 mmHg 80%
    23:00 +3°C° 0.6 mm 6 mps 753 mmHg 82%

    22 January, Tuesday

    Time Temperature Precipitation Wind Pressure Humidity
    00:00 +3°C° 0.6 mm 7 mps 752 mmHg 84%
    01:00 +3°C° 1.1 mm 6 mps 751 mmHg 84%
    02:00 +3°C° 1.1 mm 6 mps 750 mmHg 85%
    03:00 +3°C° 1.1 mm 6 mps 749 mmHg 86%
    04:00 +3°C° 1.1 mm 5 mps 749 mmHg 85%
    05:00 +3°C° 1.1 mm 4 mps 748 mmHg 85%
    06:00 +3°C° 1.1 mm 3 mps 748 mmHg 84%
    07:00 +3°C° 0.6 mm 3 mps 748 mmHg 84%
    08:00 +2°C° 0.6 mm 3 mps 748 mmHg 83%
    09:00 +1°C° 0.6 mm 4 mps 748 mmHg 82%
    10:00 +1°C° 0.3 mm 4 mps 748 mmHg 83%
    11:00 +3°C° 0.3 mm 4 mps 748 mmHg 83%
    12:00 +3°C° 0.3 mm 4 mps 748 mmHg 83%
    13:00 +3°C° 0.3 mm 4 mps 748 mmHg 83%
    14:00 +3°C° 0.3 mm 4 mps 748 mmHg 84%
    15:00 +3°C° 0.3 mm 3 mps 748 mmHg 84%
    16:00 +3°C° 0.4 mm 3 mps 748 mmHg 85%
    17:00 +3°C° 0.4 mm 3 mps 748 mmHg 87%
    18:00 +3°C° 0.4 mm 3 mps 749 mmHg 89%
    19:00 +3°C° 0.4 mm 3 mps 749 mmHg 89%
    20:00 +4°C° 0.4 mm 2 mps 749 mmHg 89%
    21:00 +3°C° 0.4 mm 2 mps 749 mmHg 89%
    22:00 +3°C° 0.2 mm 2 mps 749 mmHg 88%
    23:00 +3°C° 0.2 mm 2 mps 750 mmHg 87%
    Show more